Regional Weather Roundup
Issued by NWS

Home | Current Version | Previous Version | Text Only | Print | Product List | Glossary On
Versions: 1 2 3 4 5 6 7 8 9 10 11 12 13 14 15 16 17 18 19 20 21 22 23 24 25 26 27 28 29 30 31 32 33 34 35 36 37 38 39 40 41 42 43 44 45 46 47 48 49 50
000
ASUS43 KMKX 201521
RWRWI

WISCONSIN REGIONAL WEATHER ROUNDUP
NATIONAL WEATHER SERVICE MILWAUKEE/SULLIVAN WI
1000 AM CDT FRI OCT 20 2017

NOTE: "FAIR" INDICATES FEW OR NO CLOUDS BELOW 12,000 FEET WITH NO
SIGNIFICANT WEATHER AND/OR OBSTRUCTIONS TO VISIBILITY.

WIZ001-002-006>008-014>016-023>028-201600-
NORTHWEST WISCONSIN

CITY           SKY/WX    TMP DP  RH WIND       PRES   REMARKS
SUPERIOR ARPT  SUNNY     58  50  74 CALM      29.84F
ASHLAND        SUNNY     63  47  55 S12       29.88F
HAYWARD        SUNNY     59  47  64 S12       29.92S
SIREN          SUNNY     64  49  57 S8        29.88F
CUMBERLAND     SUNNY     59  48  67 S12       29.93S
RICE LAKE      SUNNY     58  48  70 SE7       29.95F
CHETEK         SUNNY     59  51  73 SE8       29.95S
LADYSMITH      SUNNY     60  49  67 S9        29.98S
EAU CLAIRE     SUNNY     62  50  64 S8        29.96F
MENOMONIE      SUNNY     63  52  66 S12       29.95F
NEW RICHMOND   SUNNY     63  49  59 S15       29.91F
OSCEOLA        SUNNY     63  50  63 S9G16     29.93S
$$

WIZ003>005-009-010-017-018-201600-
NORTH CENTRAL WISCONSIN

CITY           SKY/WX    TMP DP  RH WIND       PRES   REMARKS
MANITOWISH WTR SUNNY     57  47  69 S10       29.96F
ARBOR VITAE    SUNNY     59  49  67 S9        29.98F
WOODRUFF       SUNNY     59  49  67 S9        29.98F
RHINELANDER    SUNNY     60  49  66 SW13      30.01S
EAGLE RIVER    SUNNY     58  45  60 SW5       29.99F
LAND O LAKES   SUNNY     58  46  62 S5        29.99F
PHILLIPS       SUNNY     59  49  68 S6        29.97S
TOMAHAWK       SUNNY     58  47  66 S3        30.01S
MEDFORD        SUNNY     58  48  71 S6        30.01S
MERRILL        SUNNY     61  49  65 SW8       30.02F
$$

WIZ029-030-035-036-043>047-201600-
CENTRAL WISCONSIN

CITY           SKY/WX    TMP DP  RH WIND       PRES   REMARKS
WAUSAU         SUNNY     59  49  69 VRB3      30.01F
MOSINEE        SUNNY     59  52  77 S8        30.04F
MARSHFIELD     SUNNY     61  49  64 S13       30.02S
STEVENS POINT  SUNNY     58  48  69 S8        30.05S
WAUPACA        SUNNY     62  50  63 S6        30.06F
WAUTOMA        SUNNY     58  49  72 SW5       30.07F
WISC RAPIDS    SUNNY     62  51  67 SW10      30.05S
CAMP DOUGLAS   MOSUNNY   63  52  67 SW7       30.04F
$$

WIZ011>013-019>022-031-037>040-048>050-201600-
NORTHEAST WISCONSIN

CITY           SKY/WX    TMP DP  RH WIND       PRES   REMARKS
ANTIGO         SUNNY     58  49  70 SW10      30.04S
SHAWANO        SUNNY     61  48  61 SW6       30.05S
OCONTO         SUNNY     61  48  63 SW7       30.05S
STURGEON BAY   SUNNY     63  49  60 SW10      30.06F
GREEN BAY      SUNNY     62  52  69 S12       30.07S
MANITOWOC      SUNNY     64  50  60 S7        30.09F
APPLETON       SUNNY     63  46  55 SW10      30.06F
CLINTONVILLE   SUNNY     63  48  59 SW9       30.05F
OSHKOSH        SUNNY     62  51  67 S14       30.07F
$$

WIZ032>034-041-042-053>061-201600-
SOUTHWEST WISCONSIN

CITY           SKY/WX    TMP DP  RH WIND       PRES   REMARKS
LA CROSSE      SUNNY     63  52  67 S6        30.02S
SPARTA         SUNNY     63  52  67 S6        30.04S
VIROQUA        SUNNY     62  53  72 S10       30.06S
BOSCOBEL       SUNNY     64  53  67 VRB3      30.08S
PRAIRIE DU CHI SUNNY     62  50  66 CALM      30.07S
PLATTEVILLE    SUNNY     61  54  77 S9        30.11S
$$

WIZ056-057-062-063-064-067-068-201600-
SOUTH CENTRAL WISCONSIN

CITY           SKY/WX    TMP DP  RH WIND       PRES   REMARKS
REEDSBURG      SUNNY     62  52  69 S7        30.07S
BARABOO/DELLS  SUNNY     63  50  62 SW9       30.08R
LONE ROCK      SUNNY     62  54  74 S6        30.09S
MINERAL POINT  SUNNY     63  55  77 S7        30.10F
MADISON        MOSUNNY   62  51  67 S10       30.10S
MIDDLETON      SUNNY     63  51  64 SW12      30.10S
WATERTOWN      SUNNY     63  53  68 S6        30.11F
MONROE         SUNNY     61  50  67 S12       30.13R
JANESVILLE     SUNNY     64  52  63 SW9       30.13S
$$

WIZ051-052-058>065-066-070>072-201600-
SOUTHEAST WISCONSIN

CITY           SKY/WX    TMP DP  RH WIND       PRES   REMARKS
MILWAUKEE      MOSUNNY   65  50  58 SW14      30.14F
WAUKESHA       SUNNY     61  48  63 S8        30.15S
MILWAUKEE/TIMM SUNNY     64  46  52 SW7       30.14S
RACINE         SUNNY     67  52  58 SW6       30.16S
BURLINGTON     SUNNY     63  53  69 SW12      30.14F
KENOSHA        SUNNY     65  51  60 SW9       30.15F
FOND DU LAC    SUNNY     65  48  54 S9G17     30.09F
SHEBOYGAN      SUNNY     65  53  65 SW9       30.11S
WEST BEND      SUNNY     64  50  59 S7        30.11F
JUNEAU         SUNNY     62  50  64 S12       30.12S
$$

LSZ147-162-201600-
LAKE SUPERIOR

STATION/POSITION TIME  TEMP    WIND        PRES    WAVE
                       AIR SEA DIR/SP/G            HT/PER
                 (UTC) (F)     (DEG/KT/KT) (MB)    (FT/S)
W MID LAKE BUOY  1350   54 52              1011.8F   1/ 4
DEVILS ISLAND    1400   59     180/  7/ 10 1011.4F
PORT WING        1230          170/  2/  4 1011.5
SAXON HARBOR     1340   61     190/  9/ 14 1011.5F
$$

LMZ867-665-643>646-201600-
LAKE MICHIGAN

STATION/POSITION TIME  TEMP    WIND        PRES    WAVE
                       AIR SEA DIR/SP/G            HT/PER
                 (UTC) (F)     (DEG/KT/KT) (MB)    (FT/S)
S GREEN BAY BUOY 1430   58 58  210/ 12/ 14 1017.5S
N MID LAKE BUOY  1350   60 58  190/ 16/ 19 1018.4F   4/ 6
NORTHPORT PIER   1340   58     160/  7/ 11 1017.6S
KEWAUNEE LAKESHO 1418   53     190/  7/  8 1017.8
SHEBOYGAN LAKESH 1400   55     180/  9/ 10 1019.6R
PORT WASHINGTON  1330   56     180/  7/  8 1021.0S
ATWATER BUOY     1309   56 53  180/  8/ 12 1020.4
MILWAUKEE LAKESH 1420   62     220/  9/ 10   N/A
S MID LAKE BUOY  1350   62 61  180/ 14/ 16 1021.6R   2/ 4
KENOSHA   LAKESH 1400   62     220/  8/ 11 1021.0
$$

TC  - TEMPERATURE IN CELSIUS
VSB - VISIBILITY IN STATUTE MILES
WCI - WIND CHILL INDEX
HX  - HEAT INDEX





USA.gov is the U.S. government's official web portal to all federal, state and local government web resources and services.